This is the latest recevied weather packets stored in our database for station/object HA9OZD-18. If no packets are shown the sender has not sent any weather packets the latest 10 day(s).
| Time | Temp. | Humidity | Pressure | Rain* | Wind** | Luminosity | Snow |
|---|---|---|---|---|---|---|---|
| 1788623120 | 15.56° C | 48% | 1016.9 hPa | - | - | - | - |
| 1788619520 | 16.11° C | 47% | 1017 hPa | - | - | - | - |
| 1788615919 | 17.22° C | 58% | 1017.2 hPa | - | - | - | - |
| 1788612319 | 18.89° C | 56% | 1017 hPa | - | - | - | - |
| 1788608719 | 13.89° C | 100% | 1016.9 hPa | - | - | - | - |
| 1788605119 | 13.89° C | 100% | 1017 hPa | - | - | - | - |
| 1788601518 | 15° C | 100% | 1017.6 hPa | - | - | - | - |
| 1788597918 | 16.67° C | 76% | 1017.6 hPa | - | - | - | - |
| 1788594318 | 18.33° C | 65% | 1016.3 hPa | - | - | - | - |
| 1788590717 | 18.33° C | 59% | 1015.3 hPa | - | - | - | - |
| 1788587117 | 18.33° C | 57% | 1014.6 hPa | - | - | - | - |
| 1788583525 | 18.33° C | 57% | 1014.4 hPa | - | - | - | - |
| 1788583517 | 18.33° C | 57% | 1014.5 hPa | - | - | - | - |
| 1788579917 | 17.78° C | 59% | 1014.2 hPa | - | - | - | - |
| 1788576316 | 17.78° C | 60% | 1014.1 hPa | - | - | - | - |
| 1788572716 | 18.33° C | 56% | 1014.1 hPa | - | - | - | - |
| 1788569125 | 18.33° C | 55% | 1014.2 hPa | - | - | - | - |
| 1788569116 | 18.33° C | 55% | 1014.2 hPa | - | - | - | - |
| 1788565516 | 18.33° C | 53% | 1014.5 hPa | - | - | - | - |
| 1788561915 | 18.33° C | 53% | 1015 hPa | - | - | - | - |
| 1788558315 | 18.33° C | 53% | 1015.3 hPa | - | - | - | - |
| 1788554715 | 18.33° C | 57% | 1015.5 hPa | - | - | - | - |
| 1788551114 | 17.78° C | 60% | 1015.8 hPa | - | - | - | - |
| 1788547530 | 17.78° C | - | - | - | - | - | - |
| 1788547519 | 17.78° C | 59% | 1016.1 hPa | - | - | - | - |
* Rain since midnight (hover to see other rain measurements)
** Current wind speed in m/s (hover to see current wind gust speed)